Location: Glendale
(37.4556°N, 88.6714°W)
Time: 11:49:55
(UTC+00:00)

CZ-4C R/B - Pass Details

Date: 08 December 2019
Orbit: 646 x 1356 km, 63.4° (Epoch: 26 January)

Event Time Altitude Azimuth Distance (km) Brightness Sun altitude
Exits shadow 09:42:41 29° 19° (NNE) 2,028 4.2 -37.7°
Maximum altitude 09:44:41 33° 47° (NE) 1,931 4.2 -37.3°
Drops below altitude 10° 09:51:54 10° 109° (ESE) 3,343 6.0 -35.8°
Sets 09:55:14 0° 118° (ESE) 4,354 6.7 -35.2°
